Location: Shepherdstown, WV
(39.4326°N, 77.8042°W)
Time: 04:33:45
(UTC-04:00)

Vanguard 1 - Pass Details

Date: 03 August 2021
Orbit: 652 x 3831 km, 34.3° (Epoch: 24 September)

Event Time Altitude Azimuth Distance (km) Brightness Sun altitude
Rises 09:35:37 0° 212° (SSW) 3,051 12.4 37.4°
Reaches altitude 10° 09:38:49 10° 188° (S) 2,046 11.8 38.0°
Maximum altitude 09:41:29 16° 151° (SSE) 1,722 12.0 38.5°
Drops below altitude 10° 09:44:16 10° 113° (ESE) 2,168 13.0 39.1°
Sets 09:47:50 0° 91° (E) 3,346 13.7 39.7°
